| time (UTC) | temp C | wind direction | speed KPH | gust KPH | rain 1hr cm | rain 24hr cm | rain mn cm | humidity % | barometer mb |
| 20260505004254 | 18 | 128 | 4.8 | 12.9 | 0.00 | 0.00 | 0.00 | 49 | 1005.4 |
| 20260505003751 | 18 | 141 | 4.8 | 11.3 | 0.00 | 0.00 | 0.00 | 49 | 1005.4 |
| 20260505003251 | 18 | 233 | 8.0 | 17.7 | 0.00 | 0.00 | 0.00 | 48 | 1005.4 |
| 20260505002752 | 18 | 202 | 4.8 | 14.5 | 0.00 | 0.00 | 0.00 | 49 | 1005.4 |
| 20260505002251 | 18 | 251 | 4.8 | 12.9 | 0.00 | 0.00 | 0.00 | 48 | 1005.4 |
| 20260505001751 | 18 | 52 | 3.2 | 11.3 | 0.00 | 0.00 | 0.00 | 48 | 1005.4 |
| 20260505001251 | 18 | 145 | 3.2 | 9.7 | 0.00 | 0.00 | 0.00 | 46 | 1005.1 |
| 20260505000752 | 18 | 312 | 3.2 | 8.0 | 0.00 | 0.00 | 0.00 | 46 | 1005.1 |
| 20260505000251 | 19 | 174 | 1.6 | 6.4 | 0.00 | 0.00 | 0.00 | 45 | 1005.1 |
| 20260504235751 | 19 | 156 | 3.2 | 14.5 | 0.00 | 0.00 | 0.00 | 44 | 1005.1 |
| 20260504235251 | 19 | 123 | 3.2 | 9.7 | 0.00 | 0.00 | 0.00 | 44 | 1005.1 |
| 20260504234752 | 19 | 239 | 4.8 | 12.9 | 0.00 | 0.00 | 0.00 | 43 | 1005.1 |
| 20260504234251 | 20 | 294 | 1.6 | 4.8 | 0.00 | 0.00 | 0.00 | 44 | 1005.1 |
| 20260504233751 | 20 | 344 | 4.8 | 12.9 | 0.00 | 0.00 | 0.00 | 43 | 1005.1 |
| 20260504233251 | 20 | 147 | 3.2 | 8.0 | 0.00 | 0.00 | 0.00 | 43 | 1004.7 |
| 20260504232751 | 20 | 122 | 4.8 | 11.3 | 0.00 | 0.00 | 0.00 | 42 | 1004.7 |
| 20260504232251 | 20 | 168 | 4.8 | 11.3 | 0.00 | 0.00 | 0.00 | 42 | 1004.7 |
| 20260504231756 | 20 | 147 | 3.2 | 11.3 | 0.00 | 0.00 | 0.00 | 41 | 1004.7 |
| 20260504231251 | 20 | 228 | 4.8 | 12.9 | 0.00 | 0.00 | 0.00 | 40 | 1004.7 |
| 20260504230751 | 20 | 214 | 4.8 | 12.9 | 0.00 | 0.00 | 0.00 | 40 | 1004.7 |
| 20260504230252 | 21 | 210 | 8.0 | 16.1 | 0.00 | 0.00 | 0.00 | 40 | 1004.7 |
| 20260504225751 | 21 | 212 | 6.4 | 12.9 | 0.00 | 0.00 | 0.00 | 39 | 1005.1 |
| 20260504225251 | 21 | 161 | 6.4 | 17.7 | 0.00 | 0.00 | 0.00 | 40 | 1005.1 |
| 20260504224752 | 21 | 190 | 9.7 | 19.3 | 0.00 | 0.00 | 0.00 | 39 | 1005.1 |
| 20260504224251 | 21 | 149 | 11.3 | 19.3 | 0.00 | 0.00 | 0.00 | 39 | 1005.1 |
| 20260504223751 | 21 | 180 | 4.8 | 12.9 | 0.00 | 0.00 | 0.00 | 40 | 1005.1 |
| 20260504223251 | 21 | 222 | 8.0 | 12.9 | 0.00 | 0.00 | 0.00 | 38 | 1004.7 |
| 20260504222751 | 21 | 112 | 8.0 | 22.5 | 0.00 | 0.00 | 0.00 | 37 | 1005.1 |
| 20260504222251 | 21 | 209 | 4.8 | 11.3 | 0.00 | 0.00 | 0.00 | 39 | 1004.7 |
| 20260504221751 | 21 | 272 | 3.2 | 11.3 | 0.00 | 0.00 | 0.00 | 39 | 1004.7 |
| 20260504221252 | 21 | 94 | 4.8 | 17.7 | 0.00 | 0.00 | 0.00 | 39 | 1004.7 |
| 20260504220251 | 21 | 229 | 4.8 | 11.3 | 0.00 | 0.00 | 0.00 | 37 | 1004.7 |
| 20260504215752 | 21 | 236 | 6.4 | 11.3 | 0.00 | 0.00 | 0.00 | 35 | 1004.7 |
| 20260504215251 | 21 | 272 | 6.4 | 19.3 | 0.00 | 0.00 | 0.00 | 35 | 1004.7 |
| 20260504214752 | 21 | 240 | 9.7 | 19.3 | 0.00 | 0.00 | 0.00 | 36 | 1004.7 |
| 20260504213751 | 22 | 186 | 8.0 | 19.3 | 0.00 | 0.00 | 0.00 | 35 | 1004.7 |
| 20260504213251 | 22 | 296 | 6.4 | 12.9 | 0.00 | 0.00 | 0.00 | 35 | 1005.1 |
| 20260504212752 | 22 | 174 | 6.4 | 19.3 | 0.00 | 0.00 | 0.00 | 36 | 1005.1 |
| 20260504212252 | 22 | 211 | 9.7 | 22.5 | 0.00 | 0.00 | 0.00 | 35 | 1005.1 |
| 20260504211252 | 22 | 168 | 4.8 | 12.9 | 0.00 | 0.00 | 0.00 | 35 | 1005.1 |
| 20260504210751 | 22 | 226 | 9.7 | 20.9 | 0.00 | 0.00 | 0.00 | 34 | 1005.1 |
| 20260504210251 | 22 | 200 | 8.0 | 20.9 | 0.00 | 0.00 | 0.00 | 35 | 1005.1 |
| 20260504205752 | 22 | 26 | 6.4 | 19.3 | 0.00 | 0.00 | 0.00 | 37 | 1005.1 |
| 20260504204751 | 22 | 232 | 6.4 | 11.3 | 0.00 | 0.00 | 0.00 | 36 | 1005.4 |
| 20260504204251 | 22 | 242 | 9.7 | 20.9 | 0.00 | 0.00 | 0.00 | 35 | 1005.4 |
| 20260504203752 | 23 | 208 | 8.0 | 29.0 | 0.00 | 0.00 | 0.00 | 36 | 1005.4 |
| 20260504203251 | 23 | 321 | 6.4 | 24.1 | 0.00 | 0.00 | 0.00 | 36 | 1005.4 |
| 20260504202251 | 23 | 191 | 9.7 | 22.5 | 0.00 | 0.00 | 0.00 | 34 | 1005.4 |
| 20260504201751 | 23 | 204 | 11.3 | 22.5 | 0.00 | 0.00 | 0.00 | 35 | 1005.4 |
| 20260504201252 | 23 | 5 | 4.8 | 19.3 | 0.00 | 0.00 | 0.00 | 34 | 1005.4 |
| 20260504200751 | 23 | 232 | 8.0 | 20.9 | 0.00 | 0.00 | 0.00 | 34 | 1005.8 |
| 20260504195752 | 23 | 286 | 9.7 | 25.7 | 0.00 | 0.00 | 0.00 | 36 | 1005.8 |
| 20260504195251 | 22 | 269 | 9.7 | 17.7 | 0.00 | 0.00 | 0.00 | 36 | 1005.8 |
| 20260504194752 | 22 | 204 | 9.7 | 19.3 | 0.00 | 0.00 | 0.00 | 37 | 1006.1 |
| 20260504194256 | 23 | 280 | 6.4 | 19.3 | 0.00 | 0.00 | 0.00 | 36 | 1006.1 |
| 20260504193252 | 22 | 206 | 6.4 | 11.3 | 0.00 | 0.00 | 0.00 | 37 | 1006.1 |
| 20260504192752 | 23 | 248 | 4.8 | 9.7 | 0.00 | 0.00 | 0.00 | 36 | 1006.1 |
| 20260504192251 | 22 | 58 | 8.0 | 17.7 | 0.00 | 0.00 | 0.00 | 37 | 1006.1 |
| 20260504191753 | 22 | 164 | 8.0 | 22.5 | 0.00 | 0.00 | 0.00 | 38 | 1006.1 |
| 20260504190752 | 22 | 180 | 8.0 | 14.5 | 0.00 | 0.00 | 0.00 | 39 | 1006.4 |
| 20260504190252 | 22 | 214 | 9.7 | 17.7 | 0.00 | 0.00 | 0.00 | 39 | 1006.4 |
| 20260504185751 | 22 | 273 | 8.0 | 20.9 | 0.00 | 0.00 | 0.00 | 40 | 1006.1 |
| 20260504185251 | 21 | 317 | 4.8 | 11.3 | 0.00 | 0.00 | 0.00 | 40 | 1006.4 |
| 20260504184751 | 21 | 324 | 4.8 | 12.9 | 0.00 | 0.00 | 0.00 | 41 | 1006.4 |
| 20260504184251 | 22 | 326 | 6.4 | 11.3 | 0.00 | 0.00 | 0.00 | 39 | 1006.4 |
| 20260504183752 | 22 | 340 | 6.4 | 16.1 | 0.00 | 0.00 | 0.00 | 39 | 1006.4 |
| 20260504183252 | 21 | 216 | 8.0 | 17.7 | 0.00 | 0.00 | 0.00 | 40 | 1006.4 |
| 20260504182751 | 21 | 249 | 6.4 | 16.1 | 0.00 | 0.00 | 0.00 | 41 | 1006.4 |
| 20260504182252 | 21 | 196 | 9.7 | 16.1 | 0.00 | 0.00 | 0.00 | 40 | 1006.4 |
| 20260504181751 | 22 | 197 | 9.7 | 22.5 | 0.00 | 0.00 | 0.00 | 40 | 1006.4 |
| 20260504181252 | 22 | 265 | 9.7 | 20.9 | 0.00 | 0.00 | 0.00 | 40 | 1006.4 |
| 20260504180752 | 22 | 207 | 6.4 | 14.5 | 0.00 | 0.00 | 0.00 | 40 | 1006.8 |
| 20260504180251 | 22 | 184 | 9.7 | 19.3 | 0.00 | 0.00 | 0.00 | 39 | 1006.8 |
| 20260504175751 | 22 | 6 | 6.4 | 16.1 | 0.00 | 0.00 | 0.00 | 41 | 1006.8 |
| 20260504175252 | 21 | 195 | 9.7 | 17.7 | 0.00 | 0.00 | 0.00 | 41 | 1006.8 |
| 20260504174751 | 21 | 198 | 9.7 | 22.5 | 0.00 | 0.00 | 0.00 | 42 | 1006.8 |
| 20260504174251 | 21 | 244 | 8.0 | 17.7 | 0.00 | 0.00 | 0.00 | 41 | 1006.8 |
| 20260504173752 | 21 | 211 | 11.3 | 20.9 | 0.00 | 0.00 | 0.00 | 42 | 1006.8 |
| 20260504173251 | 21 | 194 | 8.0 | 20.9 | 0.00 | 0.00 | 0.00 | 42 | 1006.8 |
| 20260504172752 | 21 | 248 | 8.0 | 17.7 | 0.00 | 0.00 | 0.00 | 42 | 1006.8 |
| 20260504172251 | 20 | 252 | 8.0 | 11.3 | 0.00 | 0.00 | 0.00 | 44 | 1006.8 |
| 20260504171752 | 20 | 323 | 8.0 | 20.9 | 0.00 | 0.00 | 0.00 | 45 | 1006.8 |
| 20260504171251 | 20 | 290 | 11.3 | 24.1 | 0.00 | 0.00 | 0.00 | 45 | 1006.8 |
| 20260504170752 | 20 | 198 | 9.7 | 27.4 | 0.00 | 0.00 | 0.00 | 44 | 1006.8 |
| 20260504170251 | 20 | 17 | 8.0 | 16.1 | 0.00 | 0.00 | 0.00 | 44 | 1006.8 |
| 20260504160252 | 17 | 246 | 11.3 | 19.3 | 0.00 | 0.00 | 0.00 | 48 | 1007.5 |
| 20260504150755 | 17 | 246 | 11.3 | 24.1 | 0.00 | 0.00 | 0.00 | 48 | 1007.8 |
| 20260504150251 | 16 | 221 | 12.9 | 20.9 | 0.00 | 0.00 | 0.00 | 49 | 1008.1 |
| 20260504141253 | 15 | 241 | 9.7 | 25.7 | 0.00 | 0.00 | 0.00 | 51 | 1008.1 |
| 20260504140754 | 15 | 187 | 6.4 | 14.5 | 0.00 | 0.00 | 0.00 | 51 | 1008.5 |
| 20260504140254 | 13 | 180 | 11.3 | 20.9 | 0.00 | 0.00 | 0.00 | 52 | 1008.5 |
| 20260504130751 | 11 | 177 | 6.4 | 17.7 | 0.00 | 0.00 | 0.00 | 58 | 1008.8 |
| 20260504130251 | 11 | 229 | 8.0 | 20.9 | 0.00 | 0.00 | 0.00 | 59 | 1008.8 |
| 20260504120252 | 8 | 242 | 4.8 | 11.3 | 0.00 | 0.00 | 0.00 | 64 | 1009.1 |
| 20260504110253 | 6 | 183 | 3.2 | 9.7 | 0.00 | 0.00 | 0.00 | 76 | 1008.8 |
| 20260504100253 | 3 | 64 | 0.0 | 0.0 | 0.00 | 0.00 | 0.00 | 83 | 1008.8 |
| 20260504081751 | 5 | 58 | 0.0 | 0.0 | 0.00 | 0.00 | 0.00 | 78 | 1009.1 |
| 20260504081252 | 5 | 91 | 0.0 | 1.6 | 0.00 | 0.00 | 0.00 | 77 | 1009.1 |
| 20260504080752 | 5 | 97 | 0.0 | 1.6 | 0.00 | 0.00 | 0.00 | 77 | 1009.1 |
| 20260504080251 | 5 | 136 | 0.0 | 1.6 | 0.00 | 0.00 | 0.00 | 77 | 1009.1 |
| 20260504070252 | 5 | 149 | 0.0 | 1.6 | 0.00 | 0.00 | 0.00 | 77 | 1009.1 |
| 20260504050752 | 6 | 50 | 0.0 | 1.6 | 0.00 | 0.00 | 0.00 | 77 | 1009.5 |
| 20260504050251 | 6 | 14 | 0.0 | 0.0 | 0.00 | 0.00 | 0.00 | 77 | 1009.5 |
| 20260504045752 | 6 | 26 | 0.0 | 1.6 | 0.00 | 0.00 | 0.00 | 77 | 1009.5 |
| 20260504045252 | 6 | 32 | 0.0 | 0.0 | 0.00 | 0.00 | 0.00 | 76 | 1009.5 |
| 20260504044751 | 6 | 350 | 0.0 | 0.0 | 0.00 | 0.00 | 0.00 | 75 | 1009.5 |
| 20260504044251 | 7 | 343 | 0.0 | 0.0 | 0.00 | 0.00 | 0.00 | 74 | 1009.5 |
| 20260504043751 | 7 | 13 | 0.0 | 1.6 | 0.00 | 0.00 | 0.00 | 74 | 1009.5 |
| 20260504043252 | 7 | 332 | 0.0 | 1.6 | 0.00 | 0.00 | 0.00 | 74 | 1009.5 |
| 20260504042751 | 7 | 28 | 0.0 | 1.6 | 0.00 | 0.00 | 0.00 | 74 | 1009.5 |
| 20260504042251 | 8 | 26 | 0.0 | 0.0 | 0.00 | 0.00 | 0.00 | 73 | 1009.5 |
| 20260504041751 | 8 | 24 | 0.0 | 0.0 | 0.00 | 0.00 | 0.00 | 74 | 1009.5 |
| 20260504041252 | 8 | 336 | 0.0 | 1.6 | 0.00 | 0.00 | 0.00 | 71 | 1009.5 |
| 20260504040751 | 8 | 8 | 0.0 | 0.0 | 0.00 | 0.00 | 0.00 | 70 | 1009.5 |
| 20260504040251 | 8 | 337 | 0.0 | 0.0 | 0.00 | 0.00 | 0.00 | 72 | 1009.5 |
| 20260504035751 | 8 | 64 | 0.0 | 0.0 | 0.00 | 0.00 | 0.00 | 71 | 1009.5 |
| 20260504035251 | 8 | 29 | 0.0 | 0.0 | 0.00 | 0.00 | 0.00 | 71 | 1009.5 |
| 20260504034751 | 8 | 27 | 0.0 | 0.0 | 0.00 | 0.00 | 0.00 | 72 | 1009.5 |
| 20260504034251 | 8 | 15 | 0.0 | 0.0 | 0.00 | 0.00 | 0.00 | 71 | 1009.5 |
| 20260504033751 | 8 | 5 | 0.0 | 0.0 | 0.00 | 0.00 | 0.00 | 69 | 1009.5 |
| 20260504033251 | 9 | 5 | 0.0 | 0.0 | 0.00 | 0.00 | 0.00 | 69 | 1009.5 |
| 20260504032751 | 9 | 8 | 0.0 | 0.0 | 0.00 | 0.00 | 0.00 | 69 | 1009.5 |
| 20260504032251 | 9 | 348 | 0.0 | 0.0 | 0.00 | 0.00 | 0.00 | 68 | 1009.5 |
| 20260504031751 | 9 | 46 | 0.0 | 0.0 | 0.00 | 0.00 | 0.00 | 67 | 1009.8 |
| 20260504031251 | 10 | 1 | 0.0 | 0.0 | 0.00 | 0.00 | 0.00 | 68 | 1009.8 |
| 20260504030751 | 10 | 11 | 0.0 | 0.0 | 0.00 | 0.00 | 0.00 | 65 | 1009.8 |
| 20260504030252 | 10 | 67 | 0.0 | 1.6 | 0.00 | 0.00 | 0.00 | 62 | 1009.8 |
| 20260504025751 | 10 | 136 | 0.0 | 3.2 | 0.00 | 0.00 | 0.00 | 60 | 1009.8 |
| 20260504025251 | 10 | 95 | 0.0 | 1.6 | 0.00 | 0.00 | 0.00 | 60 | 1009.5 |
| 20260504024751 | 10 | 162 | 0.0 | 1.6 | 0.00 | 0.00 | 0.00 | 59 | 1009.8 |
| 20260504024252 | 10 | 358 | 0.0 | 3.2 | 0.00 | 0.00 | 0.00 | 58 | 1009.8 |
| 20260504023752 | 10 | 118 | 0.0 | 3.2 | 0.00 | 0.00 | 0.00 | 60 | 1009.8 |
| 20260504023252 | 10 | 343 | 0.0 | 1.6 | 0.00 | 0.00 | 0.00 | 59 | 1009.8 |
| 20260504022751 | 10 | 329 | 1.6 | 4.8 | 0.00 | 0.00 | 0.00 | 58 | 1009.8 |
| 20260504022251 | 10 | 320 | 1.6 | 6.4 | 0.00 | 0.00 | 0.00 | 58 | 1009.8 |
| 20260504021752 | 10 | 218 | 4.8 | 9.7 | 0.00 | 0.00 | 0.00 | 60 | 1009.8 |
| 20260504021251 | 10 | 252 | 4.8 | 12.9 | 0.00 | 0.00 | 0.00 | 59 | 1009.8 |
| 20260504020751 | 10 | 241 | 3.2 | 12.9 | 0.00 | 0.00 | 0.00 | 60 | 1009.8 |
| 20260504020251 | 10 | 233 | 4.8 | 16.1 | 0.00 | 0.00 | 0.00 | 60 | 1009.8 |
| 20260504015751 | 10 | 307 | 6.4 | 16.1 | 0.00 | 0.00 | 0.00 | 60 | 1009.8 |
| 20260504015252 | 10 | 229 | 4.8 | 19.3 | 0.00 | 0.00 | 0.00 | 60 | 1010.2 |
| 20260504014751 | 10 | 186 | 11.3 | 20.9 | 0.00 | 0.00 | 0.00 | 62 | 1010.2 |
| 20260504014251 | 10 | 227 | 9.7 | 16.1 | 0.00 | 0.00 | 0.00 | 60 | 1010.2 |
| 20260504013751 | 10 | 210 | 11.3 | 27.4 | 0.00 | 0.00 | 0.00 | 58 | 1010.2 |
| 20260504013251 | 10 | 203 | 11.3 | 32.2 | 0.00 | 0.00 | 0.00 | 55 | 1009.8 |
| 20260504012751 | 10 | 330 | 4.8 | 12.9 | 0.00 | 0.00 | 0.00 | 55 | 1009.5 |
| 20260504012251 | 10 | 265 | 4.8 | 11.3 | 0.00 | 0.00 | 0.00 | 55 | 1009.8 |
| 20260504011752 | 10 | 233 | 3.2 | 8.0 | 0.00 | 0.00 | 0.00 | 56 | 1009.8 |
| 20260504011251 | 10 | 336 | 3.2 | 9.7 | 0.00 | 0.00 | 0.00 | 58 | 1009.8 |
| 20260504010752 | 10 | 205 | 9.7 | 24.1 | 0.00 | 0.00 | 0.00 | 57 | 1009.8 |
| 20260504010252 | 10 | 188 | 8.0 | 20.9 | 0.00 | 0.00 | 0.00 | 56 | 1009.8 |
| 20260504005751 | 10 | 285 | 3.2 | 6.4 | 0.00 | 0.00 | 0.00 | 56 | 1009.5 |
| 20260504005251 | 10 | 101 | 6.4 | 16.1 | 0.00 | 0.00 | 0.00 | 57 | 1009.8 |
| 20260504004751 | 10 | 308 | 3.2 | 9.7 | 0.00 | 0.00 | 0.00 | 55 | 1009.8 |